Weather in Kharkiv

Ukraine / Kharkiv Region     49°59′31″N   36°13′52″E
temp.,
°C
wind,
m/s
gust,
m/s
humid.,
%
clouds,
%
prec.,
mm/h
press.,
hPa
HPBL,
m
4 july, mon
mon400:00+20nw25720 0.0 1017118
03:00+18nw26820 0.0 1017156
06:00+19nnw24800 0.0 1017122
09:00+25nnw23560 0.0 1016537
12:00+27nnw44455 0.0 10161204
15:00+30nnw443623 0.0 10152734
18:00+27nnw3445100 0.0 1015904
21:00+23n265914 0.0 1015172
5 july, tue
tue500:00+23nnw235960 0.0 101590
03:00+20n12716 0.0 101637
06:00+21nnw12717 0.0 101667
09:00+26nnw235050 0.0 1016632
12:00+29n3339100 0.1 10162643
15:00+30nne333767 0.1 10162313
18:00+29n223815 0.0 10151997
21:00+24se245917 0.0 1016118
6 july, wed
wed600:00+22sse22680 0.0 101768
03:00+21ese22700 0.0 101739
06:00+21sse12672 0.0 101767
09:00+27sse23480 0.0 1016659
12:00+30sse333681 0.0 10162730
15:00+31s333163 0.0 10152690
18:00+30sse333338 0.0 10141696
21:00+26se49450 0.0 1014361
7 july, thu
thu700:00+23se385124 0.0 1015215
03:00+22sse3115017 0.0 1015310
06:00+22sse41241100 0.0 1015380
09:00+27s583031 0.0 1015633
12:00+30sse452726 0.0 10151499
15:00+32se53273 0.0 10142672
18:00+30ese55280 0.0 10141773
21:00+25ese37360 0.0 1014188
8 july, fri
fri800:00+22ese37424 0.0 1014170
03:00+20ese12460 0.0 101545
06:00+20ese25424 0.0 1015125
09:00+26se45325 0.0 1015553
12:00+30sse44265 0.0 10142100
15:00+32se43235 0.0 10133100
18:00+31ese44265 0.0 10132419
21:00+26ene363827 0.0 1014163